Sarasota, FL

5:30 PM EST on December 18, 2017 (GMT -0500)
Sarasota-bradenton

Weather History for KSRQ - March, 2012

Change the Weather History Date:

Sunday, March 25, 2012

  Actual Average Record
Temperature  
Mean Temperature 75 °F 68 °F  
Max Temperature 80 °F 77 °F 90 °F (1929)
Min Temperature 69 °F 58 °F 32 °F (1915)
Degree Days  
Heating Degree Days 0 1  
Month to date heating degree days 7 44  
Since 1 July heating degree days 205 462  
Cooling Degree Days 10 4  
Month to date cooling degree days 214 78  
Year to date cooling degree days 393 182  
Growing Degree Days 24 (Base 50)    
Moisture  
Dew Point 63 °F    
Average Humidity 70    
Maximum Humidity 87    
Minimum Humidity 46    
Precipitation  
Precipitation 0.34 in 0.11 in 1.88 in (1952)
Month to date precipitation 1.28 3.13  
Year to date precipitation 3.01 8.32  
Sea Level Pressure  
Sea Level Pressure 29.90 in    
Wind  
Wind Speed 11 mph (West)    
Max Wind Speed 18 mph    
Max Gust Speed 23 mph    
Visibility 10 miles    
Events Rain    
T = Trace of Precipitation, MM = Missing Value Source: NWS Daily Summary

Daily Weather History Graph

Daily Weather History Graph

Search for Another Location

Airport or City:

Trip Planner

Search our weather history database for the weather conditions in past years. The results will help you decide how hot, cold, wet, or windy it might be!

Date:

Astronomy

Mar. 25, 2012 Rise Set
Actual Time 7:27 AM EDT 7:44 PM EDT
Civil Twilight 7:04 AM EDT 8:07 PM EDT
Nautical Twilight 6:37 AM EDT 8:34 PM EDT
Astronomical Twilight 6:09 AM EDT 9:02 PM EDT
Moon 8:58 AM EDT (3/25) 10:37 PM EDT (3/25)
Length of Visible Light 13h 03m
Length of Day
12h 16m
Waxing Crescent, 8% of the Moon is Illuminated
Mar 25
Waxing Crescent
Mar 30
First Quarter
Apr 6
Full
Apr 13
Last Quarter
Apr 21
New

Hourly Weather History & Observations

Time (EDT) Temp. Dew Point Humidity Pressure Visibility Wind Dir Wind Speed Gust Speed Precip Events Conditions
12:53 AM 75.0 °F 68.0 °F 79% 29.94 in 10.0 mi SW 12.7 mph - 0.00 in Rain Light Rain
1:53 AM 73.9 °F 69.1 °F 85% 29.94 in 10.0 mi SW 10.4 mph - 0.03 in Rain Light Rain
2:53 AM 73.9 °F 70.0 °F 87% 29.90 in 9.0 mi SSW 15.0 mph - 0.09 in Rain Light Rain
3:53 AM 72.0 °F 66.9 °F 84% 29.90 in 10.0 mi WSW 12.7 mph - 0.00 in   Scattered Clouds
4:53 AM 72.0 °F 66.0 °F 81% 29.89 in 10.0 mi WSW 12.7 mph - 0.00 in Rain Light Rain
5:53 AM 72.0 °F 64.0 °F 76% 29.89 in 10.0 mi SSW 11.5 mph - 0.00 in   Overcast
6:53 AM 71.6 °F 64.4 °F 78% 29.88 in 10.0 mi SSW 10.4 mph - N/A   Scattered Clouds
7:28 AM 71.6 °F 66.2 °F 83% 29.89 in 10.0 mi SSW 10.4 mph - 0.00 in Rain Light Rain
7:53 AM 73.0 °F 66.0 °F 79% 29.89 in 10.0 mi SSW 11.5 mph - 0.00 in   Overcast
8:24 AM 73.4 °F 66.2 °F 78% 29.89 in 10.0 mi SSW 9.2 mph - N/A   Overcast
8:37 AM 71.6 °F 66.2 °F 83% 29.91 in 1.8 mi SW 11.5 mph - 0.10 in Rain Heavy Rain
8:45 AM 71.6 °F 66.2 °F 83% 29.91 in 3.0 mi WSW 6.9 mph - 0.11 in Rain Light Rain
8:53 AM 72.0 °F 66.9 °F 84% 29.91 in 10.0 mi SW 9.2 mph - 0.11 in Rain Light Rain
9:41 AM 73.4 °F 68.0 °F 83% 29.92 in 10.0 mi WSW 5.8 mph - N/A   Mostly Cloudy
9:53 AM 73.9 °F 68.0 °F 82% 29.92 in 10.0 mi West 8.1 mph - 0.00 in   Mostly Cloudy
10:16 AM 73.4 °F 68.0 °F 83% 29.93 in 10.0 mi West 8.1 mph - N/A   Mostly Cloudy
10:51 AM 75.2 °F 64.4 °F 69% 29.93 in 10.0 mi NW 9.2 mph - N/A   Overcast
10:53 AM 75.9 °F 64.0 °F 67% 29.93 in 10.0 mi NW 8.1 mph - N/A   Overcast
11:53 AM 78.1 °F 64.0 °F 62% 29.93 in 10.0 mi WNW 11.5 mph - N/A   Clear
12:53 PM 79.0 °F 64.0 °F 60% 29.92 in 10.0 mi West 11.5 mph - N/A   Clear
1:53 PM 79.0 °F 64.0 °F 60% 29.91 in 10.0 mi West 12.7 mph - N/A   Clear
2:12 PM 78.8 °F 64.4 °F 61% 29.90 in 10.0 mi West 12.7 mph - N/A   Mostly Cloudy
2:34 PM 78.8 °F 64.4 °F 61% 29.90 in 10.0 mi West 13.8 mph - N/A   Scattered Clouds
2:53 PM 78.8 °F 64.4 °F 61% 29.89 in 10.0 mi West 13.8 mph - N/A   Partly Cloudy
3:53 PM 79.0 °F 62.1 °F 56% 29.87 in 10.0 mi West 16.1 mph 23.0 mph N/A   Clear
4:53 PM 78.1 °F 57.9 °F 50% 29.87 in 10.0 mi WNW 15.0 mph - N/A   Clear
5:53 PM 77.0 °F 55.0 °F 47% 29.87 in 10.0 mi NW 12.7 mph - N/A   Clear
6:53 PM 75.0 °F 54.0 °F 48% 29.86 in 10.0 mi NW 12.7 mph - N/A   Clear
7:53 PM 71.1 °F 55.9 °F 59% 29.87 in 10.0 mi NW 10.4 mph - N/A   Clear
8:53 PM 70.0 °F 54.0 °F 57% 29.89 in 10.0 mi NW 9.2 mph - N/A   Clear
9:53 PM 70.0 °F 54.0 °F 57% 29.91 in 10.0 mi NW 10.4 mph - N/A   Clear
10:53 PM 70.0 °F 55.9 °F 61% 29.92 in 10.0 mi NW 9.2 mph - N/A   Clear
11:53 PM 70.0 °F 55.9 °F 61% 29.93 in 10.0 mi WNW 8.1 mph - N/A   Clear